Orbital Elements at Epoch 2459200.5 (2020-Dec-17.0) TDB
Reference: JPL 37 (heliocentric ecliptic J2000)
Element | Value | Uncertainty (1-sigma) | Units |
e | .1841597670621915 | 1.9516e-08 | |
a | 2.552004639702902 | 1.0182e-08 | au |
q | 2.082028059713584 | 5.1159e-08 | au |
i | 12.9894444154627 | 1.2255e-06 | deg |
node | 131.3197164388769 | 2.3997e-06 | deg |
peri | 238.3581688386807 | 7.6351e-06 | deg |
M | 61.62655871603673 | 6.4236e-06 | deg |
tp | 2458945.590493292218 (2020-Apr-06.09049329) | 2.6105e-05 | TDB |
period | 1489.088865689357 4.08 | 8.9119e-06 2.44e-08 | d yr |
n | .2417585735108845 | 1.4469e-09 | deg/d |
Q | 3.02198121969222 | 1.2057e-08 | au |
|
| | Orbit Determination Parameters
Additional Information
|